N4CVG Weather Reports


time (UTC)temp
C
wind
direction
speed
KPH
gust
KPH
rain 1hr
cm
rain 24hr
cm
rain mn
cm
humidity
%
barometer
mb
20260508214043 21 118 6.4 17.7 0.00 0.00 0.00 40 1010.7
20260508213045 21 155 6.4 17.7 0.00 0.00 0.00 38 1010.9
20260508212000 21 121 8.0 22.5 0.00 0.00 0.00 42 1011.0
20260508211000 21 170 4.8 25.7 0.00 0.00 0.00 37 1011.2
20260508210001 21 171 6.4 14.5 0.00 0.00 0.00 36 1011.4
20260508205001 21 122 4.8 19.3 0.00 0.00 0.00 41 1011.4
20260508204001 21 178 4.8 11.3 0.00 0.00 0.00 42 1011.5
20260508203000 21 120 9.7 27.4 0.00 0.00 0.00 40 1011.6
20260508202001 21 114 11.3 25.7 0.00 0.00 0.00 35 1011.5
20260508201021 21 134 6.4 19.3 0.00 0.00 0.00 46 1011.6
20260508200000 21 97 11.3 20.9 0.00 0.00 0.00 38 1011.9
20260508195001 20 119 4.8 19.3 0.00 0.00 0.00 38 1012.0
20260508194023 20 123 9.7 25.7 0.00 0.00 0.00 34 1012.1
20260508193000 20 112 8.0 19.3 0.00 0.00 0.00 35 1012.1
20260508192000 20 86 12.9 22.5 0.00 0.00 0.00 36 1012.2
20260508191001 20 133 8.0 25.7 0.00 0.00 0.00 43 1012.6
20260508190000 20 342 3.2 22.5 0.00 0.00 0.00 42 1012.7
20260508185001 20 342 4.8 20.9 0.00 0.00 0.00 40 1012.9
20260508184001 20 342 12.9 20.9 0.00 0.00 0.00 37 1013.1
20260508183001 20 342 6.4 17.7 0.00 0.00 0.00 42 1013.2
20260508182002 20 342 6.4 16.1 0.00 0.00 0.00 38 1013.4
20260508181022 19 342 6.4 22.5 0.00 0.00 0.00 39 1013.6
20260508180001 18 342 9.7 25.7 0.00 0.00 0.00 39 1013.7
20260508175001 19 342 8.0 25.7 0.00 0.00 0.00 39 1014.2
20260508174001 19 342 6.4 16.1 0.00 0.00 0.00 41 1014.4
20260508173001 18 342 6.4 25.7 0.00 0.00 0.00 44 1014.7
20260508172001 18 342 11.3 22.5 0.00 0.00 0.00 45 1014.8
20260508171001 19 166 4.8 11.3 0.00 0.00 0.00 45 1015.0
20260508170001 19 175 1.6 9.7 0.00 0.00 0.00 51 1015.1
20260508165022 18 342 4.8 16.1 0.00 0.00 0.00 46 1015.4
20260508164001 18 342 11.3 16.1 0.00 0.00 0.00 49 1015.6
20260508163001 17 342 9.7 22.5 0.00 0.00 0.00 46 1015.6
20260508162000 17 342 8.0 19.3 0.00 0.00 0.00 48 1015.7
20260508161002 17 342 8.0 19.3 0.00 0.00 0.00 50 1016.0
20260508160000 17 342 6.4 11.3 0.00 0.00 0.00 48 1016.0
20260508155001 17 342 3.2 16.1 0.00 0.00 0.00 50 1016.1
20260508154000 17 342 9.7 19.3 0.00 0.00 0.00 46 1016.3
20260508153000 16 342 6.4 14.5 0.00 0.00 0.00 53 1016.4
20260508152000 16 342 9.7 17.7 0.00 0.00 0.00 49 1016.5
20260508151000 16 342 6.4 14.5 0.00 0.00 0.00 50 1016.6
20260508150000 15 342 1.6 9.7 0.00 0.00 0.00 55 1016.6
20260508145001 15 342 3.2 12.9 0.00 0.00 0.00 55 1016.5
20260508144001 14 342 6.4 12.9 0.00 0.00 0.00 57 1016.6
20260508143000 13 342 4.8 11.3 0.00 0.00 0.00 63 1016.6
20260508142022 13 342 8.0 14.5 0.00 0.00 0.00 66 1016.7
20260508141002 12 342 3.2 8.0 0.00 0.00 0.00 68 1016.7
20260508140001 12 342 4.8 9.7 0.00 0.00 0.00 71 1016.7
20260508135001 11 128 4.8 11.3 0.00 0.00 0.00 70 1016.6
20260508134000 10 124 3.2 9.7 0.00 0.00 0.00 72 1016.7
20260508133001 10 198 3.2 11.3 0.00 0.00 0.00 72 1016.6
20260508132001 10 125 3.2 8.0 0.00 0.00 0.00 74 1016.6
20260508131001 9 120 3.2 8.0 0.00 0.00 0.00 76 1016.6
20260508130001 8 127 3.2 8.0 0.00 0.00 0.00 79 1016.5
20260508125000 7 157 3.2 6.4 0.00 0.00 0.00 81 1016.5
20260508124023 6 125 0.0 6.4 0.00 0.00 0.00 84 1016.5
20260508123001 6 123 3.2 6.4 0.00 0.00 0.00 86 1016.4
20260508122002 5 107 3.2 4.8 0.00 0.00 0.00 88 1016.5
20260508121001 5 106 1.6 4.8 0.00 0.00 0.00 88 1016.5
20260508120022 5 106 1.6 3.2 0.00 0.00 0.00 88 1016.4
20260508115000 5 106 1.6 4.8 0.00 0.00 0.00 88 1016.3
20260508114001 5 102 1.6 3.2 0.00 0.00 0.00 89 1016.1
20260508113002 4 103 0.0 4.8 0.00 0.00 0.00 88 1016.0
20260508112022 4 102 1.6 3.2 0.00 0.00 0.00 89 1015.9
20260508111000 4 102 0.0 3.2 0.00 0.00 0.00 88 1015.8
20260508110001 4 103 1.6 4.8 0.00 0.00 0.00 86 1015.6
20260508105001 5 102 3.2 6.4 0.00 0.00 0.00 85 1015.7
20260508104000 5 115 3.2 6.4 0.00 0.00 0.00 85 1015.6
20260508103023 5 111 4.8 6.4 0.00 0.00 0.00 86 1015.6
20260508102002 5 99 3.2 4.8 0.00 0.00 0.00 87 1015.5
20260508101000 4 99 3.2 4.8 0.00 0.00 0.00 87 1015.5
20260508100022 5 100 0.0 4.8 0.00 0.00 0.00 85 1015.5
20260508095001 5 100 3.2 6.4 0.00 0.00 0.00 84 1015.5
20260508094021 5 106 3.2 4.8 0.00 0.00 0.00 82 1015.5
20260508093001 5 100 1.6 3.2 0.00 0.00 0.00 82 1015.5
20260508092022 5 100 1.6 3.2 0.00 0.00 0.00 83 1015.4
20260508091000 5 101 0.0 1.6 0.00 0.00 0.00 83 1015.5
20260508090001 5 101 0.0 1.6 0.00 0.00 0.00 84 1015.5
20260508085001 5 100 0.0 1.6 0.00 0.00 0.00 84 1015.4
20260508084000 5 100 0.0 0.0 0.00 0.00 0.00 85 1015.5
20260508083001 5 100 0.0 0.0 0.00 0.00 0.00 85 1015.6
20260508082001 5 101 0.0 4.8 0.00 0.00 0.00 85 1015.5
20260508081000 5 98 0.0 4.8 0.00 0.00 0.00 86 1015.5
20260508080002 5 96 0.0 3.2 0.00 0.00 0.00 85 1015.5
20260508075001 5 95 1.6 3.2 0.00 0.00 0.00 85 1015.3
20260508074022 5 95 0.0 1.6 0.00 0.00 0.00 85 1015.2
20260508073001 6 94 0.0 4.8 0.00 0.00 0.00 84 1015.2
20260508072001 6 90 1.6 4.8 0.00 0.00 0.00 83 1015.2
20260508071001 6 88 3.2 4.8 0.00 0.00 0.00 83 1015.2
20260508070000 6 82 3.2 4.8 0.00 0.00 0.00 83 1015.2
20260508065001 6 81 0.0 3.2 0.00 0.00 0.00 84 1015.2
20260508064000 6 81 1.6 3.2 0.00 0.00 0.00 83 1015.2
20260508063001 6 81 0.0 3.2 0.00 0.00 0.00 82 1015.2
20260508062023 6 81 1.6 3.2 0.00 0.00 0.00 82 1015.2
20260508061022 6 82 0.0 3.2 0.00 0.00 0.00 82 1015.3
20260508060001 7 79 0.0 0.0 0.00 0.00 0.00 80 1015.3
20260508055001 7 81 0.0 1.6 0.00 0.00 0.00 79 1015.5
20260508054023 7 81 1.6 8.0 0.00 0.00 0.00 77 1015.5
20260508053001 7 80 1.6 3.2 0.00 0.00 0.00 72 1015.6
20260508052000 8 80 3.2 4.8 0.00 0.00 0.00 68 1015.6
20260508051001 8 273 0.0 0.0 0.00 0.00 0.00 67 1015.6
20260508050001 9 273 0.0 0.0 0.00 0.00 0.00 57 1015.4
20260508045023 9 273 0.0 0.0 0.00 0.00 0.00 57 1015.3
20260508044001 9 273 0.0 0.0 0.00 0.00 0.00 57 1015.4
20260508043001 10 273 0.0 0.0 0.00 0.00 0.00 57 1015.3
20260508042022 10 274 0.0 0.0 0.00 0.00 0.00 57 1015.4
20260508041001 10 271 0.0 0.0 0.00 0.00 0.00 58 1015.4
20260508040001 10 273 0.0 0.0 0.00 0.00 0.00 57 1015.4
20260508035001 10 273 0.0 0.0 0.00 0.00 0.00 57 1015.5
20260508034001 10 273 0.0 0.0 0.00 0.00 0.00 57 1015.4
20260508033000 10 274 0.0 0.0 0.00 0.00 0.00 58 1015.5
20260508032001 10 274 0.0 0.0 0.00 0.00 0.00 58 1015.5
20260508031001 10 275 0.0 0.0 0.00 0.00 0.00 59 1015.5
20260508030000 10 275 0.0 0.0 0.00 0.00 0.00 63 1015.5
20260508025001 10 275 0.0 0.0 0.00 0.00 0.00 59 1015.4
20260508024000 10 275 0.0 0.0 0.00 0.00 0.00 61 1015.3
20260508023001 10 268 0.0 0.0 0.00 0.00 0.00 60 1015.2
20260508022001 10 264 0.0 0.0 0.00 0.00 0.00 62 1015.3
20260508021002 11 265 0.0 0.0 0.00 0.00 0.00 68 1015.1
20260508020001 11 264 0.0 0.0 0.00 0.00 0.00 53 1014.9
20260508015000 11 271 0.0 1.6 0.00 0.00 0.00 52 1014.6
20260508014001 11 272 1.6 1.6 0.00 0.00 0.00 51 1014.5
20260508013001 12 273 0.0 0.0 0.00 0.00 0.00 51 1014.4
20260508012002 12 275 0.0 1.6 0.00 0.00 0.00 49 1014.3
20260508011001 12 275 0.0 0.0 0.00 0.00 0.00 48 1014.2
20260508010004 12 275 0.0 1.6 0.00 0.00 0.00 47 1014.1
20260508005002 12 274 0.0 0.0 0.00 0.00 0.00 47 1014.0
20260508004001 13 275 0.0 0.0 0.00 0.00 0.00 46 1013.9
20260508003002 13 275 0.0 1.6 0.00 0.00 0.00 45 1013.7
20260508002023 13 275 0.0 3.2 0.00 0.00 0.00 45 1013.7
20260508001000 14 274 1.6 4.8 0.00 0.00 0.00 44 1013.7
20260508000001 14 273 1.6 8.0 0.00 0.00 0.00 43 1013.6
20260507235001 15 285 1.6 8.0 0.00 0.00 0.00 43 1013.6
20260507234022 15 285 3.2 11.3 0.00 0.00 0.00 39 1013.5
20260507233001 16 272 4.8 11.3 0.00 0.00 0.00 39 1013.4
20260507232000 16 295 1.6 4.8 0.00 0.00 0.00 39 1013.5
20260507231001 16 334 4.8 11.3 0.00 0.00 0.00 39 1013.4
20260507230022 16 231 1.6 6.4 0.00 0.00 0.00 39 1013.3
20260507225022 16 299 3.2 11.3 0.00 0.00 0.00 37 1013.3
20260507224001 17 270 3.2 9.7 0.00 0.00 0.00 37 1013.2
20260507223002 17 245 1.6 6.4 0.00 0.00 0.00 40 1013.4
20260507222001 17 229 1.6 8.0 0.00 0.00 0.00 39 1013.5
20260507220001 17 310 1.6 11.3 0.00 0.00 0.00 40 1013.4
20260507215001 17 304 3.2 14.5 0.00 0.00 0.00 40 1013.3